QPF
0.01 0.01 0.01 0.02 0.02 0.02 0.03 0.04 0.05 0.06 0.06 0.05 0.06 0.05 0.04 0.04 0.05 0.06 0.07 0.08 0.08 0.08 0.08 0.09 0.11 0.14 0.16 0.12 0.09 0.08 0.09 0.10 0.11 0.08 0.06 0.05 0.05 0.03 0.03 0.02 0.02 0.03 0.05
0.01 0.01 0.01 0.02 0.02 0.02 0.03 0.03 0.04 0.05 0.05 0.05 0.04 0.05 0.05 0.05 0.05 0.06 0.06 0.09 0.12 0.09 0.09 0.10 0.10 0.11 0.10 0.07 0.06 0.06 0.06 0.05 0.06 0.05 0.04 0.04 0.04 0.03 0.03 0.03 0.02 0.03 0.03
0.01 0.01 0.01 0.01 0.02 0.02 0.02 0.03 0.04 0.04 0.04 0.05 0.04 0.05 0.06 0.06 0.06 0.06 0.06 0.06 0.07 0.06 0.07 0.08 0.08 0.08 0.08 0.07 0.06 0.06 0.07 0.06 0.06 0.06 0.04 0.04 0.04 0.04 0.05 0.04 0.04 0.05 0.05
0.01 0.01 0.02 0.02 0.02 0.02 0.02 0.03 0.03 0.02 0.02 0.03 0.03 0.04 0.05 0.06 0.06 0.07 0.07 0.07 0.07 0.07 0.08 0.07 0.07 0.07 0.07 0.07 0.07 0.09 0.09 0.09 0.10 0.10 0.07 0.06 0.06 0.06 0.07 0.08 0.08 0.07 0.06
0.02 0.03 0.05 0.03 0.02 0.02 0.02 0.03 0.03 0.03 0.02 0.02 0.03 0.04 0.06 0.06 0.05 0.06 0.06 0.06 0.08 0.09 0.08 0.08 0.08 0.07 0.07 0.07 0.05 0.05 0.07 0.08 0.08 0.07 0.08 0.07 0.07 0.07 0.06 0.06 0.05 0.05 0.04
0.02 0.02 0.03 0.03 0.03 0.04 0.05 0.05 0.04 0.05 0.05 0.03 0.03 0.03 0.04 0.04 0.04 0.05 0.05 0.06 0.07 0.07 0.06 0.07 0.07 0.06 0.05 0.06 0.06 0.05 0.04 0.04 0.03 0.04 0.04 0.04 0.04 0.05 0.05 0.05 0.05 0.06 0.06
0.01 0.02 0.04 0.08 0.12 0.11 0.06 0.03 0.02 0.03 0.04 0.05 0.06 0.06 0.07 0.07 0.07 0.06 0.06 0.06 0.07 0.07 0.06 0.05 0.05 0.04 0.05 0.05 0.04 0.04 0.04 0.04 0.03 0.03 0.03 0.03 0.03 0.05 0.07 0.07 0.06 0.06 0.06
0.02 0.03 0.05 0.09 0.08 0.06 0.04 0.03 0.04 0.05 0.05 0.07 0.09 0.10 0.09 0.07 0.06 0.06 0.09 0.10 0.09 0.09 0.09 0.08 0.06 0.06 0.06 0.07 0.06 0.06 0.05 0.04 0.03 0.03 0.04 0.04 0.05 0.07 0.06 0.04 0.04 0.03 0.04
0.02 0.03 0.05 0.07 0.07 0.07 0.06 0.06 0.05 0.04 0.05 0.07 0.08 0.10 0.10 0.08 0.08 0.09 0.12 0.11 0.10 0.11 0.12 0.11 0.09 0.08 0.09 0.08 0.07 0.07 0.07 0.07 0.08 0.06 0.05 0.05 0.05 0.06 0.03 0.02 0.02 0.03 0.03
0.02 0.04 0.05 0.08 0.09 0.07 0.05 0.04 0.04 0.03 0.03 0.05 0.06 0.07 0.08 0.09 0.09 0.09 0.09 0.08 0.08 0.10 0.11 0.12 0.13 0.11 0.10 0.10 0.10 0.11 0.12 0.11 0.10 0.07 0.05 0.04 0.03 0.03 0.04 0.02 0.01 0.02 0.02
0.03 0.03 0.02 0.02 0.02 0.02 0.01 0.02 0.02 0.02 0.03 0.03 0.03 0.04 0.04 0.03 0.04 0.04 0.04 0.04 0.05 0.08 0.10 0.10 0.12 0.13 0.13 0.13 0.12 0.12 0.11 0.09 0.06 0.04 0.02 0.01 0.01 0.01 0.01 0.01 0.02 0.02 0.02
0.02 0.02 0.02 0.02 0.02 0.02 0.02 0.01 0.02 0.02 0.02 0.02 0.01 0.01 0.01 0.01 0.01 0.02 0.02 0.02 0.03 0.04 0.05 0.07 0.09 0.09 0.07 0.07 0.06 0.05 0.04 0.02 0.01 0.01 0.00 0.00 0.00 0.01 0.01 0.01 0.01 0.01 0.01
0.01 0.01 0.01 0.02 0.02 0.02 0.01 0.01 0.02 0.02 0.02 0.01 0.01 0.00 0.00 0.01 0.01 0.01 0.01 0.01 0.01 0.02 0.03 0.05 0.05 0.05 0.04 0.03 0.02 0.01 0.01 0.00 0.00 0.01 0.01 0.01 0.01 0.01 0.01 0.01 0.01 0.01 0.01
0.00 0.00 0.01 0.01 0.01 0.01 0.01 0.01 0.01 0.01 0.01 0.01 0.01 0.01 0.01 0.01 0.01 0.01 0.00 0.01 0.01 0.02 0.02 0.02 0.03 0.03 0.02 0.01 0.00 0.00 0.00 0.00 0.00 0.00 0.00 0.00 0.01 0.01 0.01 0.01 0.01 0.01 0.01
0.01 0.00 0.00 0.00 0.01 0.01 0.01 0.01 0.01 0.01 0.01 0.01 0.01 0.01 0.02 0.02 0.02 0.01 0.00 0.00 0.01 0.01 0.01 0.01 0.01 0.01 0.01 0.00 0.00 0.00 0.00 0.00 0.00 0.00 0.01 0.01 0.01 0.01 0.01 0.01 0.01 0.01 0.01
0.01 0.01 0.01 0.01 0.01 0.01 0.01 0.01 0.01 0.01 0.02 0.01 0.01 0.02 0.02 0.02 0.01 0.01 0.01 0.02 0.01 0.01 0.01 0.01 0.01 0.01 0.01 0.01 0.00 0.00 0.00 0.00 0.00 0.00 0.01 0.01 0.01 0.01 0.01 0.01 0.01 0.01 0.01
0.01 0.01 0.02 0.02 0.01 0.01 0.01 0.01 0.00 0.01 0.01 0.00 0.01 0.01 0.01 0.01 0.01 0.01 0.01 0.02 0.01 0.01 0.01 0.01 0.02 0.02 0.02 0.02 0.02 0.01 0.01 0.01 0.01 0.01 0.01 0.01 0.01 0.01 0.01 0.01 0.01 0.01 0.01
0.01 0.01 0.01 0.01 0.01 0.01 0.00 0.00 0.00 0.00 0.00 0.00 0.00 0.00 0.00 0.00 0.01 0.01 0.01 0.01 0.01 0.01 0.01 0.01 0.01 0.02 0.02 0.02 0.02 0.02 0.01 0.01 0.01 0.01 0.01 0.01 0.01 0.01 0.01 0.01 0.01 0.01 0.01
0.02 0.01 0.01 0.02 0.01 0.01 0.00 0.00 0.00 0.00 0.00 0.00 0.00 0.00 0.00 0.00 0.01 0.01 0.01 0.01 0.00 0.00 0.00 0.00 0.01 0.01 0.02 0.02 0.01 0.01 0.01 0.01 0.01 0.01 0.01 0.01 0.01 0.01 0.02 0.02 0.02 0.02 0.02
0.02 0.02 0.01 0.02 0.01 0.01 0.01 0.01 0.01 0.00 0.00 0.00 0.00 0.00 0.00 0.00 0.00 0.00 0.00 0.00 0.00 0.00 0.00 0.00 0.00 0.01 0.01 0.01 0.01 0.01 0.01 0.01 0.01 0.01 0.01 0.01 0.01 0.01 0.02 0.02 0.02 0.02 0.02
0.02 0.01 0.01 0.01 0.01 0.01 0.01 0.00 0.00 0.01 0.01 0.01 0.01 0.01 0.01 0.01 0.01 0.00 0.00 0.00 0.00 0.00 0.00 0.00 0.00 0.00 0.00 0.00 0.00 0.01 0.00 0.00 0.00 0.00 0.00 0.01 0.01 0.01 0.01 0.01 0.01 0.01 0.01
0.02 0.02 0.01 0.01 0.01 0.01 0.01 0.01 0.01 0.01 0.01 0.01 0.02 0.03 0.04 0.03 0.02 0.02 0.01 0.01 0.01 0.00 0.00 0.00 0.00 0.00 0.00 0.00 0.00 0.00 0.00 0.00 0.00 0.00 0.00 0.00 0.00 0.01 0.00 0.00 0.00 0.01 0.01
0.02 0.01 0.01 0.01 0.01 0.02 0.02 0.02 0.01 0.00 0.00 0.01 0.01 0.02 0.02 0.02 0.02 0.02 0.01 0.01 0.01 0.00 0.00 0.00 0.00 0.00 0.00 0.00 0.00 0.00 0.00 0.00 0.00 0.01 0.00 0.00 0.00 0.01 0.00 0.00 0.00 0.00 0.00
0.02 0.01 0.01 0.01 0.01 0.01 0.02 0.02 0.02 0.01 0.00 0.00 0.00 0.01 0.01 0.01 0.01 0.01 0.01 0.01 0.00 0.00 0.00 0.00 0.00 0.00 0.00 0.01 0.00 0.01 0.01 0.01 0.00 0.01 0.01 0.01 0.00 0.00 0.00 0.00 0.00 0.00 0.00
0.01 0.01 0.01 0.01 0.01 0.01 0.01 0.01 0.01 0.01 0.01 0.00 0.00 0.00 0.00 0.00 0.00 0.00 0.00 0.00 0.00 0.00 0.00 0.00 0.00 0.00 0.00 0.01 0.01 0.01 0.02 0.02 0.01 0.01 0.01 0.01 0.01 0.01 0.00 0.00 0.00 0.00 0.01
0.01 0.01 0.01 0.01 0.01 0.01 0.01 0.01 0.01 0.00 0.00 0.00 0.00 0.00 0.01 0.00 0.00 0.00 0.00 0.00 0.00 0.00 0.00 0.00 0.01 0.01 0.01 0.01 0.01 0.02 0.02 0.02 0.02 0.02 0.01 0.00 0.00 0.00 0.00 0.00 0.00 0.00 0.00
MSLP
1019.57 1019.71 1019.88 1020.04 1020.16 1020.21 1020.20 1020.11 1019.97 1019.81 1019.65 1019.50 1019.38 1019.28 1019.19 1019.08 1018.93 1018.73 1018.45 1018.10 1017.68 1017.22 1016.74 1016.27 1015.86 1015.53 1015.30 1015.20 1015.25 1015.42 1015.73 1016.14 1016.63 1017.17 1017.72 1018.25 1018.73 1019.13 1019.43 1019.62 1019.70 1019.68 1019.57
1019.99 1020.14 1020.32 1020.50 1020.65 1020.73 1020.75 1020.69 1020.58 1020.44 1020.28 1020.12 1019.98 1019.86 1019.74 1019.61 1019.45 1019.24 1018.97 1018.63 1018.22 1017.77 1017.31 1016.85 1016.44 1016.11 1015.88 1015.79 1015.83 1016.00 1016.29 1016.69 1017.16 1017.68 1018.20 1018.70 1019.14 1019.50 1019.77 1019.95 1020.03 1020.03 1019.97
1020.32 1020.49 1020.69 1020.90 1021.08 1021.21 1021.28 1021.27 1021.21 1021.09 1020.96 1020.81 1020.66 1020.53 1020.40 1020.26 1020.09 1019.89 1019.63 1019.32 1018.95 1018.54 1018.11 1017.69 1017.30 1016.98 1016.75 1016.64 1016.65 1016.79 1017.03 1017.37 1017.78 1018.23 1018.68 1019.10 1019.47 1019.77 1019.99 1020.14 1020.22 1020.25 1020.24
1020.56 1020.76 1020.99 1021.23 1021.45 1021.64 1021.76 1021.82 1021.82 1021.76 1021.66 1021.54 1021.41 1021.28 1021.14 1021.00 1020.84 1020.66 1020.43 1020.16 1019.84 1019.49 1019.12 1018.74 1018.39 1018.09 1017.86 1017.72 1017.69 1017.77 1017.94 1018.19 1018.50 1018.85 1019.19 1019.51 1019.78 1020.00 1020.15 1020.26 1020.32 1020.36 1020.40
1020.72 1020.96 1021.23 1021.51 1021.78 1022.02 1022.21 1022.34 1022.41 1022.42 1022.37 1022.29 1022.19 1022.07 1021.95 1021.81 1021.67 1021.50 1021.32 1021.10 1020.84 1020.55 1020.24 1019.93 1019.62 1019.34 1019.12 1018.96 1018.88 1018.88 1018.97 1019.12 1019.32 1019.54 1019.76 1019.96 1020.12 1020.24 1020.32 1020.37 1020.41 1020.45 1020.51
1020.82 1021.11 1021.42 1021.75 1022.07 1022.36 1022.62 1022.82 1022.96 1023.03 1023.05 1023.02 1022.95 1022.86 1022.75 1022.63 1022.50 1022.37 1022.22 1022.05 1021.85 1021.64 1021.40 1021.14 1020.89 1020.64 1020.42 1020.24 1020.12 1020.06 1020.06 1020.10 1020.19 1020.30 1020.40 1020.49 1020.55 1020.57 1020.57 1020.56 1020.55 1020.58 1020.64
1020.89 1021.25 1021.61 1021.97 1022.33 1022.68 1022.99 1023.25 1023.45 1023.59 1023.67 1023.68 1023.65 1023.58 1023.49 1023.39 1023.29 1023.18 1023.06 1022.94 1022.81 1022.66 1022.48 1022.29 1022.08 1021.87 1021.66 1021.48 1021.33 1021.21 1021.14 1021.10 1021.09 1021.10 1021.11 1021.10 1021.06 1021.01 1020.94 1020.87 1020.82 1020.80 1020.85
1020.98 1021.39 1021.80 1022.20 1022.59 1022.97 1023.32 1023.63 1023.88 1024.07 1024.20 1024.25 1024.26 1024.22 1024.15 1024.06 1023.98 1023.89 1023.81 1023.73 1023.65 1023.55 1023.44 1023.30 1023.14 1022.97 1022.78 1022.60 1022.43 1022.28 1022.16 1022.06 1021.98 1021.92 1021.85 1021.77 1021.68 1021.56 1021.44 1021.32 1021.22 1021.17 1021.18
1021.08 1021.55 1021.99 1022.42 1022.84 1023.24 1023.62 1023.96 1024.25 1024.47 1024.63 1024.73 1024.76 1024.74 1024.69 1024.63 1024.56 1024.49 1024.44 1024.40 1024.36 1024.31 1024.25 1024.16 1024.04 1023.90 1023.74 1023.56 1023.39 1023.22 1023.07 1022.94 1022.82 1022.72 1022.61 1022.49 1022.35 1022.20 1022.04 1021.89 1021.75 1021.66 1021.62
1021.19 1021.70 1022.17 1022.62 1023.05 1023.47 1023.87 1024.23 1024.54 1024.80 1024.98 1025.11 1025.17 1025.18 1025.15 1025.10 1025.05 1025.01 1024.98 1024.96 1024.96 1024.95 1024.92 1024.87 1024.79 1024.68 1024.54 1024.38 1024.20 1024.03 1023.87 1023.72 1023.58 1023.45 1023.32 1023.19 1023.04 1022.87 1022.70 1022.52 1022.36 1022.23 1022.16
1021.27 1021.81 1022.30 1022.76 1023.21 1023.64 1024.04 1024.42 1024.76 1025.04 1025.26 1025.41 1025.50 1025.54 1025.54 1025.52 1025.49 1025.47 1025.46 1025.47 1025.49 1025.50 1025.50 1025.48 1025.42 1025.33 1025.20 1025.05 1024.88 1024.70 1024.53 1024.38 1024.23 1024.10 1023.96 1023.83 1023.68 1023.51 1023.34 1023.16 1022.99 1022.84 1022.73
1021.29 1021.84 1022.34 1022.82 1023.27 1023.72 1024.14 1024.54 1024.90 1025.22 1025.47 1025.66 1025.78 1025.86 1025.89 1025.90 1025.90 1025.90 1025.92 1025.94 1025.97 1026.00 1026.01 1026.00 1025.95 1025.86 1025.74 1025.59 1025.42 1025.24 1025.07 1024.90 1024.76 1024.62 1024.49 1024.36 1024.22 1024.07 1023.91 1023.74 1023.57 1023.41 1023.28
1021.20 1021.75 1022.27 1022.76 1023.23 1023.69 1024.15 1024.58 1024.97 1025.32 1025.62 1025.85 1026.02 1026.14 1026.21 1026.26 1026.29 1026.32 1026.35 1026.39 1026.42 1026.45 1026.46 1026.44 1026.39 1026.29 1026.16 1026.01 1025.83 1025.64 1025.46 1025.30 1025.15 1025.01 1024.88 1024.76 1024.64 1024.50 1024.36 1024.21 1024.05 1023.90 1023.77
1021.01 1021.56 1022.08 1022.58 1023.08 1023.57 1024.06 1024.53 1024.97 1025.37 1025.71 1026.00 1026.22 1026.39 1026.51 1026.59 1026.65 1026.71 1026.75 1026.79 1026.82 1026.84 1026.83 1026.79 1026.72 1026.61 1026.47 1026.30 1026.11 1025.92 1025.73 1025.56 1025.41 1025.27 1025.15 1025.04 1024.92 1024.80 1024.68 1024.55 1024.41 1024.28 1024.16
1020.73 1021.27 1021.80 1022.32 1022.85 1023.37 1023.90 1024.42 1024.91 1025.35 1025.75 1026.09 1026.37 1026.58 1026.75 1026.87 1026.96 1027.02 1027.07 1027.10 1027.12 1027.11 1027.08 1027.02 1026.93 1026.80 1026.64 1026.46 1026.26 1026.07 1025.89 1025.71 1025.56 1025.43 1025.31 1025.20 1025.10 1025.00 1024.89 1024.78 1024.67 1024.56 1024.45
1020.41 1020.95 1021.49 1022.03 1022.58 1023.14 1023.71 1024.27 1024.80 1025.30 1025.74 1026.13 1026.45 1026.70 1026.90 1027.05 1027.15 1027.22 1027.27 1027.28 1027.28 1027.24 1027.19 1027.10 1026.98 1026.84 1026.67 1026.49 1026.31 1026.12 1025.95 1025.79 1025.65 1025.53 1025.42 1025.32 1025.22 1025.13 1025.04 1024.94 1024.85 1024.77 1024.68
1020.13 1020.67 1021.21 1021.76 1022.34 1022.93 1023.52 1024.11 1024.68 1025.21 1025.68 1026.10 1026.45 1026.73 1026.94 1027.10 1027.21 1027.28 1027.30 1027.30 1027.27 1027.21 1027.13 1027.03 1026.90 1026.76 1026.60 1026.44 1026.28 1026.13 1025.98 1025.85 1025.73 1025.63 1025.53 1025.44 1025.35 1025.27 1025.18 1025.10 1025.02 1024.94 1024.88
1019.94 1020.48 1021.02 1021.59 1022.17 1022.78 1023.38 1023.98 1024.56 1025.09 1025.58 1026.00 1026.36 1026.64 1026.86 1027.02 1027.12 1027.17 1027.18 1027.16 1027.10 1027.03 1026.93 1026.83 1026.71 1026.59 1026.46 1026.34 1026.23 1026.13 1026.03 1025.94 1025.86 1025.78 1025.70 1025.62 1025.54 1025.45 1025.36 1025.28 1025.20 1025.13 1025.07
1019.89 1020.42 1020.96 1021.53 1022.11 1022.71 1023.30 1023.89 1024.45 1024.97 1025.44 1025.84 1026.18 1026.45 1026.66 1026.80 1026.88 1026.91 1026.91 1026.87 1026.81 1026.73 1026.64 1026.55 1026.47 1026.39 1026.32 1026.26 1026.22 1026.18 1026.15 1026.11 1026.08 1026.03 1025.97 1025.89 1025.81 1025.71 1025.61 1025.51 1025.42 1025.34 1025.27
1019.96 1020.49 1021.03 1021.58 1022.14 1022.71 1023.27 1023.82 1024.34 1024.82 1025.25 1025.62 1025.92 1026.16 1026.34 1026.45 1026.52 1026.54 1026.52 1026.48 1026.43 1026.37 1026.31 1026.26 1026.23 1026.22 1026.22 1026.25 1026.28 1026.32 1026.36 1026.38 1026.39 1026.37 1026.32 1026.24 1026.15 1026.03 1025.91 1025.78 1025.66 1025.56 1025.46
1020.14 1020.66 1021.18 1021.71 1022.23 1022.76 1023.27 1023.76 1024.22 1024.63 1025.00 1025.32 1025.58 1025.78 1025.92 1026.01 1026.06 1026.08 1026.06 1026.04 1026.01 1025.99 1025.98 1026.00 1026.04 1026.11 1026.20 1026.31 1026.43 1026.54 1026.65 1026.72 1026.76 1026.76 1026.72 1026.64 1026.52 1026.37 1026.21 1026.05 1025.89 1025.75 1025.62
1020.37 1020.87 1021.36 1021.85 1022.33 1022.79 1023.24 1023.66 1024.04 1024.39 1024.69 1024.94 1025.15 1025.30 1025.42 1025.49 1025.53 1025.55 1025.56 1025.57 1025.59 1025.62 1025.68 1025.78 1025.90 1026.06 1026.24 1026.43 1026.62 1026.81 1026.96 1027.08 1027.14 1027.15 1027.10 1026.99 1026.85 1026.67 1026.47 1026.26 1026.07 1025.88 1025.71
1020.58 1021.05 1021.51 1021.95 1022.37 1022.77 1023.14 1023.48 1023.79 1024.06 1024.29 1024.48 1024.64 1024.76 1024.85 1024.91 1024.96 1025.00 1025.04 1025.09 1025.16 1025.27 1025.40 1025.58 1025.79 1026.02 1026.28 1026.55 1026.80 1027.04 1027.23 1027.36 1027.43 1027.44 1027.37 1027.24 1027.07 1026.85 1026.62 1026.37 1026.14 1025.91 1025.71
1020.71 1021.15 1021.56 1021.94 1022.30 1022.64 1022.94 1023.20 1023.44 1023.64 1023.81 1023.95 1024.06 1024.15 1024.22 1024.29 1024.35 1024.41 1024.49 1024.59 1024.73 1024.90 1025.11 1025.36 1025.64 1025.94 1026.26 1026.58 1026.88 1027.14 1027.35 1027.49 1027.56 1027.55 1027.47 1027.32 1027.12 1026.88 1026.62 1026.35 1026.09 1025.84 1025.61
1020.73 1021.12 1021.48 1021.82 1022.12 1022.39 1022.63 1022.83 1023.00 1023.15 1023.27 1023.37 1023.45 1023.51 1023.58 1023.64 1023.72 1023.81 1023.93 1024.07 1024.26 1024.49 1024.76 1025.06 1025.40 1025.75 1026.11 1026.46 1026.78 1027.05 1027.26 1027.41 1027.47 1027.45 1027.36 1027.20 1026.99 1026.74 1026.47 1026.20 1025.93 1025.67 1025.42
1020.62 1020.97 1021.29 1021.57 1021.82 1022.04 1022.22 1022.38 1022.51 1022.61 1022.70 1022.77 1022.83 1022.88 1022.94 1023.01 1023.10 1023.21 1023.35 1023.54 1023.76 1024.02 1024.33 1024.66 1025.03 1025.41 1025.78 1026.14 1026.47 1026.74 1026.95 1027.09 1027.15 1027.13 1027.05 1026.90 1026.70 1026.47 1026.21 1025.95 1025.69 1025.44 1025.19
Thickness
5788 5784 5780 5777 5774 5770 5766 5764 5761 5759 5757 5755 5753 5751 5749 5748 5746 5744 5743 5741 5739 5736 5735 5733 5731 5731 5730 5730 5729 5726 5723 5718 5710 5707 5705 5701 5697 5695 5693 5691 5689 5686 5682
5787 5782 5778 5775 5772 5768 5764 5761 5759 5757 5755 5753 5751 5748 5746 5745 5743 5741 5739 5738 5735 5733 5731 5730 5728 5728 5725 5724 5723 5720 5717 5714 5709 5701 5698 5695 5691 5689 5686 5684 5682 5679 5675
5785 5780 5775 5772 5768 5765 5762 5759 5756 5754 5752 5750 5748 5745 5743 5741 5740 5738 5736 5734 5732 5730 5728 5725 5724 5722 5719 5718 5717 5715 5712 5709 5705 5700 5694 5689 5686 5682 5680 5677 5674 5670 5668
5782 5777 5772 5768 5765 5762 5759 5756 5753 5751 5748 5746 5743 5741 5739 5737 5736 5733 5731 5729 5726 5724 5723 5721 5719 5716 5714 5712 5711 5708 5706 5702 5698 5694 5689 5684 5679 5676 5673 5669 5665 5662 5659
5778 5773 5768 5765 5761 5758 5755 5752 5749 5746 5743 5741 5738 5736 5734 5732 5730 5727 5725 5723 5721 5719 5717 5715 5711 5708 5706 5705 5704 5701 5699 5696 5693 5688 5682 5677 5671 5666 5664 5661 5657 5655 5651
5773 5769 5765 5761 5758 5754 5751 5748 5744 5740 5737 5735 5732 5729 5727 5725 5721 5719 5718 5717 5715 5713 5711 5709 5706 5702 5698 5695 5692 5690 5689 5687 5684 5680 5674 5667 5661 5659 5655 5653 5650 5647 5642
5768 5764 5761 5758 5753 5749 5747 5742 5738 5734 5730 5726 5724 5722 5718 5714 5712 5711 5711 5711 5709 5707 5705 5703 5701 5696 5693 5689 5684 5681 5678 5675 5672 5670 5665 5659 5654 5651 5647 5644 5639 5637 5633
5763 5759 5756 5753 5749 5745 5741 5736 5732 5728 5724 5720 5717 5714 5711 5707 5705 5704 5704 5704 5702 5699 5697 5694 5691 5687 5684 5681 5678 5674 5670 5665 5663 5660 5656 5650 5646 5641 5638 5636 5632 5629 5624
5757 5754 5751 5748 5743 5739 5734 5730 5726 5722 5718 5714 5711 5707 5704 5700 5697 5698 5698 5698 5694 5691 5688 5685 5683 5678 5673 5672 5671 5666 5661 5657 5651 5648 5644 5640 5635 5632 5629 5629 5626 5623 5618
5753 5749 5745 5741 5736 5732 5728 5723 5720 5716 5712 5709 5704 5701 5698 5694 5690 5690 5691 5692 5688 5684 5680 5676 5670 5668 5664 5663 5662 5657 5652 5648 5645 5641 5636 5632 5628 5624 5620 5618 5617 5615 5611
5748 5743 5739 5735 5730 5726 5721 5717 5713 5710 5706 5702 5698 5694 5691 5687 5684 5683 5683 5685 5683 5679 5675 5669 5661 5657 5655 5652 5651 5648 5642 5640 5638 5635 5630 5626 5621 5617 5613 5609 5605 5604 5600
5741 5736 5732 5728 5725 5720 5715 5711 5707 5704 5699 5695 5691 5688 5685 5681 5677 5675 5674 5674 5673 5671 5666 5660 5652 5648 5645 5642 5640 5636 5633 5632 5632 5627 5623 5618 5613 5609 5604 5600 5595 5591 5587
5734 5730 5725 5722 5717 5714 5710 5705 5701 5698 5697 5693 5689 5685 5681 5677 5671 5667 5665 5664 5662 5661 5655 5648 5644 5640 5637 5635 5630 5628 5627 5627 5624 5620 5615 5610 5606 5600 5596 5591 5587 5582 5579
5728 5723 5719 5715 5711 5706 5703 5700 5697 5694 5692 5688 5685 5682 5677 5673 5669 5665 5661 5657 5653 5651 5647 5640 5637 5634 5632 5627 5624 5623 5621 5617 5615 5612 5607 5602 5598 5593 5589 5585 5581 5578 5574
5722 5717 5713 5709 5705 5699 5694 5689 5689 5685 5684 5682 5680 5677 5673 5668 5660 5656 5656 5654 5651 5647 5642 5639 5636 5632 5628 5624 5620 5616 5613 5610 5606 5602 5598 5594 5590 5586 5581 5577 5572 5570 5566
5716 5712 5709 5705 5700 5695 5689 5681 5674 5674 5671 5669 5667 5667 5662 5657 5651 5648 5645 5642 5639 5636 5637 5635 5631 5626 5622 5618 5615 5610 5606 5601 5597 5594 5589 5585 5581 5577 5573 5569 5565 5561 5557
5712 5708 5704 5700 5696 5691 5687 5682 5675 5666 5661 5659 5657 5655 5652 5647 5643 5640 5637 5634 5631 5629 5631 5628 5623 5619 5616 5612 5607 5603 5598 5593 5588 5585 5581 5576 5572 5568 5565 5560 5556 5553 5549
5707 5701 5698 5694 5691 5688 5684 5680 5676 5671 5665 5658 5650 5645 5642 5639 5635 5632 5629 5627 5626 5624 5625 5620 5616 5612 5608 5603 5599 5594 5590 5585 5580 5576 5572 5567 5564 5560 5556 5552 5548 5542 5540
5701 5697 5694 5690 5687 5683 5680 5677 5673 5668 5663 5657 5651 5641 5635 5632 5628 5625 5623 5626 5625 5621 5618 5614 5610 5605 5600 5595 5590 5586 5581 5577 5571 5567 5563 5558 5556 5552 5548 5544 5541 5532 5530
5694 5688 5686 5684 5681 5677 5674 5671 5668 5663 5658 5653 5648 5643 5635 5631 5629 5624 5620 5621 5619 5614 5610 5606 5601 5597 5592 5587 5582 5578 5574 5569 5564 5560 5556 5551 5548 5544 5541 5536 5534 5530 5526
5688 5682 5677 5677 5675 5672 5669 5666 5662 5658 5653 5648 5643 5637 5629 5631 5628 5622 5618 5614 5610 5606 5601 5597 5593 5589 5584 5579 5575 5570 5566 5561 5556 5552 5548 5543 5540 5536 5532 5530 5526 5523 5519
5682 5678 5674 5671 5668 5665 5662 5659 5656 5651 5647 5642 5636 5629 5621 5623 5621 5617 5612 5607 5603 5598 5593 5589 5585 5580 5575 5571 5566 5562 5558 5553 5548 5544 5539 5536 5532 5529 5526 5523 5520 5516 5512
5675 5671 5667 5664 5662 5655 5654 5652 5649 5645 5641 5636 5631 5625 5619 5617 5614 5609 5605 5600 5594 5590 5585 5580 5575 5571 5567 5561 5557 5552 5549 5544 5539 5534 5531 5528 5525 5522 5519 5515 5512 5508 5505
5668 5665 5661 5658 5654 5651 5649 5645 5642 5638 5634 5629 5624 5619 5615 5610 5607 5602 5598 5593 5588 5582 5577 5572 5567 5562 5557 5553 5548 5543 5537 5532 5528 5525 5521 5519 5517 5514 5511 5507 5504 5501 5498
5662 5658 5655 5652 5649 5645 5642 5639 5635 5631 5627 5622 5617 5613 5609 5605 5600 5595 5590 5586 5580 5575 5570 5565 5560 5555 5549 5544 5539 5533 5527 5522 5518 5515 5512 5510 5508 5505 5502 5499 5496 5493 5490
5655 5651 5648 5645 5642 5638 5635 5631 5627 5623 5619 5615 5610 5606 5602 5598 5594 5589 5584 5579 5574 5569 5563 5558 5552 5547 5542 5536 5530 5524 5518 5514 5509 5506 5503 5502 5501 5498 5494 5492 5489 5486 5484